Regional Weather Roundup
Issued by NWS

Home | Current Version | Previous Version | Graphics & Text | Print | Product List | Glossary On
Versions: 1 2 3 4 5 6 7 8 9 10 11 12 13 14 15 16 17 18 19 20 21 22 23 24 25 26 27 28 29 30 31 32 33 34 35 36 37 38 39 40 41 42 43 44 45 46 47 48 49 50
583
ASUS44 KMEG 182010
RWRTN
TENNESSEE HOURLY STATE WEATHER ROUNDUP
NATIONAL WEATHER SERVICE MEMPHIS TN
200 PM CST WED JAN 18 2017

TNZ002-004-019-021-049-052-054-088>092-182100-
WEST TENNESSEE

CITY           SKY/WX    TMP DP  RH WIND       PRES   REMARKS
MEMPHIS INTL   CLOUDY    53  43  68 VRB5      30.12F
NWS MEMPHIS      N/A     52 N/A N/A MISG        N/A
JACKSON        PTSUNNY   51  44  77 E6        30.14F
DYERSBURG      CLOUDY    48  41  76 E7        30.14F
UNION CITY     CLOUDY    46  46 100 CALM      30.15F
PARIS          CLOUDY    45  39  81 CALM      30.17S
HUNTINGDON     CLOUDY    48  43  81 VRB3      30.15F
$$

TNZ008-025-027-028-033-062-065-066-182100-
NORTH MIDDLE TENNESSEE

CITY           SKY/WX    TMP DP  RH WIND       PRES   REMARKS
NASHVILLE      CLOUDY    49  39  68 SE5       30.17F
PORTLAND       MOSUNNY   48  39  71 CALM      30.16F
CLARKSVILLE    CLOUDY    48  38  68 E3        30.17F
SMYRNA         CLOUDY    48  41  76 S5        30.19F
GALLATIN       CLOUDY    50  41  71 CALM      30.19F
CROSSVILLE     MOSUNNY   52  39  61 N3        30.12F
$$

TNZ061-075-076-078-094-096-097-182100-
SOUTH MIDDLE TENNESSEE

CITY           SKY/WX    TMP DP  RH WIND       PRES   REMARKS
FAYETTEVILLE   PTSUNNY   54  46  76 N6        30.14F
TULLAHOMA      SUNNY     54  45  71 NW8       30.16R
WINCHESTER     SUNNY     54  45  71 VRB3      30.15R
MCMINNVILLE    SUNNY     50  43  76 CALM      30.15S
COLUMBIA       PTSUNNY   52  52 100 N5        30.15S
SHELBYVILLE    CLOUDY    52  45  76 NW5       30.18R
$$

TNZ017-018-042-046-047-182100-
NORTHEAST TENNESSEE

CITY           SKY/WX    TMP DP  RH WIND       PRES   REMARKS
TRI CITIES     MOSUNNY   59  38  45 W13       30.08F
ELIZABETHTON   SUNNY     59  39  47 W10G17    30.07F
$$

TNZ012-013-036-069-073-074-182100-
CENTRAL EAST TENNESSEE

CITY           SKY/WX    TMP DP  RH WIND       PRES   REMARKS
KNOXVILLE      CLOUDY    59  42  53 CALM      30.10F
OAK RIDGE      CLOUDY    60  40  47 S3        30.12F
GATLINBURG     SUNNY     57  45  62 CALM      30.10F
MORRISTOWN     SUNNY     57  39  51 NW8       30.09F
JACKSBORO      SUNNY     57  39  51 CALM      30.14F
$$

TNZ083-085-099-182100-
SOUTHEAST TENNESSEE

CITY           SKY/WX    TMP DP  RH WIND       PRES   REMARKS
CHATTANOOGA    PTSUNNY   64  45  49 NE5       30.10F
$$

SKY/WX REPORTED AS FAIR MEANS FEW OR NO CLOUDS BELOW
12 THOUSAND FEET.





USA.gov is the U.S. government's official web portal to all federal, state and local government web resources and services.